Hourly Weather Lukasheve

Today, 12 May, Wednesday

Time Temperature Precipitation Wind Pressure Humidity
00:00 +7°C° 0 mm 5 mps 751 mmHg 81%
01:00 +7°C° 0 mm 5 mps 751 mmHg 81%
02:00 +7°C° 0 mm 5 mps 750 mmHg 82%
03:00 +7°C° 0.1 mm 5 mps 750 mmHg 83%
04:00 +7°C° 0.1 mm 4 mps 750 mmHg 84%
05:00 +7°C° 0.1 mm 4 mps 750 mmHg 85%
06:00 +7°C° 0.2 mm 4 mps 750 mmHg 83%
07:00 +7°C° 0.2 mm 4 mps 750 mmHg 81%
08:00 +8°C° 0 mm 4 mps 751 mmHg 77%
09:00 +10°C° 0.3 mm 4 mps 750 mmHg 75%
10:00 +10°C° 0.3 mm 4 mps 750 mmHg 72%
11:00 +11°C° 0.3 mm 4 mps 750 mmHg 70%
12:00 +11°C° 0.6 mm 3 mps 750 mmHg 66%
13:00 +12°C° 0.6 mm 3 mps 750 mmHg 62%
14:00 +13°C° 0.6 mm 3 mps 750 mmHg 58%
15:00 +13°C° 0.5 mm 3 mps 750 mmHg 59%
16:00 +13°C° 0.5 mm 3 mps 749 mmHg 61%
17:00 +13°C° 0.5 mm 4 mps 749 mmHg 62%
18:00 +11°C° 0.2 mm 3 mps 749 mmHg 68%
19:00 +10°C° 0.2 mm 3 mps 749 mmHg 74%
20:00 +9°C° 0.2 mm 3 mps 749 mmHg 79%
21:00 +8°C° 0 mm 2 mps 750 mmHg 82%
22:00 +8°C° 0 mm 2 mps 750 mmHg 84%
23:00 +7°C° 0 mm 2 mps 750 mmHg 86%

Tomorrow, 13 May, Thursday

Time Temperature Precipitation Wind Pressure Humidity
00:00 +7°C° 0 mm 2 mps 750 mmHg 86%
01:00 +7°C° 0 mm 2 mps 750 mmHg 86%
02:00 +7°C° 0 mm 2 mps 750 mmHg 86%
03:00 +7°C° 0 mm 2 mps 750 mmHg 86%
04:00 +9°C° 0 mm 1 mps 750 mmHg 85%
05:00 +9°C° 0 mm 1 mps 750 mmHg 85%
06:00 +10°C° 0 mm 1 mps 750 mmHg 78%
07:00 +12°C° 0 mm 2 mps 750 mmHg 70%
08:00 +14°C° 0 mm 2 mps 751 mmHg 63%
09:00 +15°C° 0 mm 2 mps 750 mmHg 58%
10:00 +17°C° 0 mm 3 mps 750 mmHg 53%
11:00 +18°C° 0 mm 3 mps 750 mmHg 49%
12:00 +19°C° 0 mm 3 mps 750 mmHg 48%
13:00 +20°C° 0 mm 3 mps 750 mmHg 47%
14:00 +21°C° 0 mm 3 mps 750 mmHg 46%
15:00 +21°C° 0 mm 2 mps 750 mmHg 49%
16:00 +21°C° 0 mm 2 mps 750 mmHg 53%
17:00 +22°C° 0 mm 1 mps 749 mmHg 57%
18:00 +20°C° 0 mm 1 mps 749 mmHg 61%
19:00 +17°C° 0 mm 2 mps 749 mmHg 65%
20:00 +16°C° 0 mm 2 mps 749 mmHg 70%
21:00 +15°C° 0 mm 2 mps 749 mmHg 74%
22:00 +14°C° 0 mm 3 mps 749 mmHg 77%
23:00 +13°C° 0 mm 3 mps 749 mmHg 81%

Day after tomorrow, 14 May, Friday

Time Temperature Precipitation Wind Pressure Humidity
00:00 +13°C° 0 mm 3 mps 748 mmHg 84%
01:00 +13°C° 0 mm 3 mps 748 mmHg 87%
02:00 +13°C° 0 mm 3 mps 748 mmHg 90%
03:00 +13°C° 0 mm 3 mps 748 mmHg 91%
04:00 +13°C° 0 mm 3 mps 748 mmHg 92%
05:00 +14°C° 0 mm 2 mps 748 mmHg 94%
06:00 +16°C° 0 mm 2 mps 748 mmHg 86%
07:00 +18°C° 0 mm 2 mps 748 mmHg 78%
08:00 +20°C° 0 mm 2 mps 748 mmHg 70%
09:00 +21°C° 0 mm 3 mps 748 mmHg 63%
10:00 +22°C° 0 mm 3 mps 748 mmHg 55%
11:00 +25°C° 0 mm 3 mps 748 mmHg 48%
12:00 +25°C° 0 mm 4 mps 748 mmHg 45%
13:00 +26°C° 0 mm 4 mps 748 mmHg 43%
14:00 +27°C° 0 mm 4 mps 748 mmHg 40%
15:00 +26°C° 0 mm 3 mps 748 mmHg 43%
16:00 +26°C° 0 mm 3 mps 748 mmHg 45%
17:00 +26°C° 0 mm 2 mps 748 mmHg 48%
18:00 +24°C° 0 mm 2 mps 748 mmHg 52%
19:00 +21°C° 0 mm 2 mps 748 mmHg 57%
20:00 +19°C° 0 mm 2 mps 748 mmHg 61%
21:00 +18°C° 0 mm 2 mps 748 mmHg 66%
22:00 +17°C° 0 mm 3 mps 748 mmHg 71%
23:00 +16°C° 0 mm 3 mps 748 mmHg 75%

15 May, Saturday

Time Temperature Precipitation Wind Pressure Humidity
00:00 +14°C° 0 mm 3 mps 748 mmHg 78%
01:00 +14°C° 0 mm 3 mps 749 mmHg 82%
02:00 +14°C° 0 mm 2 mps 749 mmHg 85%
03:00 +14°C° 0 mm 2 mps 749 mmHg 85%
04:00 +14°C° 0 mm 2 mps 749 mmHg 85%
05:00 +14°C° 0 mm 2 mps 749 mmHg 85%
06:00 +16°C° 0 mm 2 mps 749 mmHg 78%
07:00 +18°C° 0 mm 3 mps 750 mmHg 70%
08:00 +20°C° 0 mm 3 mps 750 mmHg 62%
09:00 +21°C° 0 mm 3 mps 750 mmHg 58%
10:00 +22°C° 0 mm 4 mps 750 mmHg 54%
11:00 +23°C° 0 mm 4 mps 750 mmHg 51%
12:00 +23°C° 0 mm 4 mps 750 mmHg 48%
13:00 +25°C° 0 mm 4 mps 750 mmHg 46%
14:00 +25°C° 0 mm 4 mps 750 mmHg 43%
15:00 +25°C° 0 mm 3 mps 750 mmHg 44%
16:00 +25°C° 0 mm 3 mps 750 mmHg 45%
17:00 +25°C° 0 mm 2 mps 750 mmHg 46%
18:00 +23°C° 0 mm 2 mps 750 mmHg 49%
19:00 +22°C° 0 mm 1 mps 749 mmHg 53%
20:00 +20°C° 0 mm 1 mps 749 mmHg 56%
21:00 +20°C° 0 mm 1 mps 749 mmHg 57%
22:00 +19°C° 0 mm 1 mps 749 mmHg 58%
23:00 +19°C° 0 mm 1 mps 749 mmHg 59%

16 May, Sunday

Time Temperature Precipitation Wind Pressure Humidity
00:00 +18°C° 0 mm 1 mps 749 mmHg 61%
01:00 +18°C° 0 mm 1 mps 749 mmHg 64%
02:00 +16°C° 0 mm 1 mps 749 mmHg 66%
03:00 +16°C° 0 mm 2 mps 749 mmHg 67%
04:00 +16°C° 0 mm 2 mps 749 mmHg 69%
05:00 +16°C° 0 mm 2 mps 749 mmHg 70%
06:00 +18°C° 0 mm 3 mps 749 mmHg 65%
07:00 +20°C° 0 mm 4 mps 749 mmHg 61%
08:00 +22°C° 0 mm 4 mps 749 mmHg 56%
09:00 +23°C° 0 mm 4 mps 749 mmHg 54%
10:00 +25°C° 0 mm 5 mps 748 mmHg 52%
11:00 +27°C° 0 mm 5 mps 748 mmHg 49%
12:00 +27°C° 0 mm 5 mps 748 mmHg 48%
13:00 +28°C° 0 mm 5 mps 747 mmHg 46%
14:00 +28°C° 0 mm 5 mps 747 mmHg 45%
15:00 +27°C° 0.1 mm 5 mps 746 mmHg 50%
16:00 +26°C° 0.1 mm 4 mps 746 mmHg 56%
17:00 +26°C° 0.1 mm 4 mps 745 mmHg 62%
18:00 +23°C° 1.8 mm 4 mps 745 mmHg 69%
19:00 +22°C° 1.8 mm 4 mps 745 mmHg 77%
20:00 +20°C° 1.8 mm 4 mps 745 mmHg 84%
21:00 +20°C° 0.1 mm 4 mps 744 mmHg 84%
22:00 +19°C° 0.1 mm 4 mps 744 mmHg 84%
23:00 +18°C° 0.1 mm 3 mps 744 mmHg 84%

17 May, Monday

Time Temperature Precipitation Wind Pressure Humidity
00:00 +18°C° 0 mm 3 mps 744 mmHg 84%
01:00 +17°C° 0 mm 4 mps 743 mmHg 83%
02:00 +17°C° 0 mm 4 mps 743 mmHg 83%
03:00 +17°C° 0 mm 4 mps 743 mmHg 82%
04:00 +17°C° 0 mm 4 mps 743 mmHg 80%
05:00 +16°C° 0 mm 5 mps 742 mmHg 79%
06:00 +17°C° 0 mm 5 mps 742 mmHg 72%
07:00 +19°C° 0 mm 5 mps 743 mmHg 66%
08:00 +21°C° 0 mm 6 mps 743 mmHg 59%
09:00 +22°C° 0.1 mm 6 mps 743 mmHg 58%
10:00 +23°C° 0.1 mm 5 mps 743 mmHg 58%
11:00 +25°C° 0.1 mm 5 mps 743 mmHg 57%
12:00 +26°C° 0.1 mm 6 mps 743 mmHg 55%
13:00 +27°C° 0.1 mm 6 mps 743 mmHg 53%
14:00 +29°C° 0.1 mm 7 mps 743 mmHg 51%
15:00 +27°C° 0 mm 6 mps 743 mmHg 54%
16:00 +26°C° 0 mm 6 mps 743 mmHg 58%
17:00 +24°C° 0 mm 6 mps 743 mmHg 61%
18:00 +23°C° 0.1 mm 6 mps 744 mmHg 68%
19:00 +21°C° 0.1 mm 5 mps 744 mmHg 75%
20:00 +20°C° 0.1 mm 5 mps 744 mmHg 82%
21:00 +19°C° 0 mm 4 mps 744 mmHg 86%
22:00 +18°C° 0 mm 4 mps 745 mmHg 90%
23:00 +17°C° 0 mm 3 mps 745 mmHg 95%
Show more

We Need Your Consent

Meteoprog and our Service Providers may store and access personal data such as cookies, device identifiers or other similar technologies on your device and process such data to personalise content and ads, as well as provide social media features and to analyse the traffic.

  • Store and/or access information on your device

    Cookies, device identifiers or other information can be stored or accessed on your device for the purposes indicated above.

  • Personalised ads and content, ad and content measurement, audience insights, and products development

    Ads and content can be personalised based on a profile. More data can be added to better personalise ads and content. Ad and content performance can be measured. Insights about the audience who saw the ads and content can be derived. Such data can be used to develop or improve user’s experience, systems and software.

By clicking ‘I Agree’ you will allow the use of indicated cookies, device identifiers, web beacons or other similar technologies. Your settings can be changed in the browser on your device.

For certain purposes, legitimate interests may be relied on, rather than consent. You can read more about this in our Privacy and Cookie Policy.